Location: ????????
(55.6333°N, 37.7000°E)
Time: 10:08:24
(UTC+00:00)

Cosmos 1470 Rocket - Pass Details

Date: 19 May 2025
Orbit: 597 x 628 km, 82.5° (Epoch: 13 June)

Event Time Altitude Azimuth Distance (km) Brightness Sun altitude
Rises 22:44:08 0° 342° (NNW) 2,871 7.9 -12.6°
Reaches altitude 10° 22:46:29 10° 334° (NNW) 1,958 6.8 -12.5°
Maximum altitude 22:50:25 35° 269° (W) 976 4.4 -12.3°
Enters shadow 22:53:03 18° 213° (SSW) 1,494 4.9 -12.1°
